Location: Beaver Brook Trail
(44.0290°N, 71.8137°W)
Time: 00:22:32
(UTC+00:00)

Altair - Pass Details

Date: 09 November 2024
Orbit: 1501 x 1683 km, 47.2° (Epoch: 03 December)

Event Time Altitude Azimuth Distance (km) Brightness Sun altitude
Rises 01:06:11 0° 284° (WNW) 4,679 10.9 -39.3°
Reaches altitude 10° 01:12:17 10° 254° (WSW) 3,730 10.0 -40.4°
Maximum altitude 01:14:51 11° 238° (WSW) 3,638 9.8 -40.8°
Drops below altitude 10° 01:17:26 10° 221° (SW) 3,763 9.7 -41.2°
Sets 01:23:45 0° 191° (SSW) 4,792 10.0 -42.3°
Enters shadow 01:23:50 - 191° (S) 4,812 10.0 -42.3°
